Back to catalog

STARLINK-34715

AliveCommunicationsVLEO
NORAD 64931·PAYLOAD·🇺🇸 United States

Launched Jul 26, 2025 from Cape Canaveral Space Force Station

Loading…

Next Passes (next 24 hours)

TLE

FreshSource: CelesTrak SupGP

Epoch: Sep 14, 2026, 15:29 UTC

1 64931C 25157AD  26257.64562500  .00064832  00000+0  19159-2 0  2579
2 64931  53.1570 185.0771 0001337 110.3677 290.5722 15.34350580    16

Track STARLINK-34715 in real time with AllMySat

Download on the App Store